QPF
0.00 0.00 0.00 0.00 0.00 0.00 0.00 0.00 0.00 0.00 0.00 0.00 0.00 0.00 0.00 0.00 0.00 0.00 0.00 0.00 0.00 0.00 0.00 0.00 0.00 0.00 0.00 0.00 0.00 0.00 0.00 0.00 0.00 0.00 0.00 0.00 0.00 0.00 0.00 0.00 0.00 0.00 0.00 0.00
0.00 0.00 0.00 0.00 0.00 0.00 0.00 0.00 0.00 0.00 0.00 0.00 0.00 0.00 0.00 0.00 0.00 0.00 0.00 0.00 0.00 0.00 0.00 0.00 0.00 0.00 0.00 0.00 0.00 0.00 0.00 0.00 0.00 0.00 0.00 0.00 0.00 0.00 0.00 0.00 0.00 0.00 0.00 0.00
0.00 0.00 0.00 0.00 0.00 0.00 0.00 0.00 0.00 0.00 0.00 0.00 0.00 0.00 0.00 0.00 0.00 0.00 0.00 0.00 0.00 0.00 0.00 0.00 0.00 0.00 0.00 0.00 0.00 0.00 0.00 0.00 0.00 0.00 0.00 0.00 0.00 0.00 0.00 0.00 0.00 0.00 0.00 0.00
0.00 0.00 0.00 0.00 0.00 0.00 0.00 0.00 0.00 0.00 0.00 0.00 0.00 0.00 0.00 0.00 0.00 0.00 0.00 0.00 0.00 0.00 0.00 0.00 0.00 0.00 0.00 0.00 0.00 0.00 0.00 0.00 0.00 0.00 0.00 0.00 0.00 0.00 0.00 0.00 0.00 0.00 0.00 0.00
0.00 0.00 0.00 0.00 0.00 0.00 0.00 0.00 0.00 0.00 0.00 0.00 0.00 0.00 0.00 0.00 0.00 0.00 0.00 0.00 0.00 0.00 0.00 0.00 0.00 0.00 0.00 0.00 0.00 0.00 0.00 0.00 0.00 0.00 0.00 0.00 0.00 0.00 0.00 0.00 0.00 0.00 0.00 0.00
0.00 0.00 0.00 0.00 0.00 0.00 0.00 0.00 0.00 0.00 0.00 0.00 0.00 0.00 0.00 0.00 0.00 0.00 0.00 0.00 0.00 0.00 0.00 0.00 0.00 0.00 0.00 0.00 0.00 0.00 0.00 0.00 0.00 0.00 0.00 0.00 0.00 0.00 0.00 0.00 0.00 0.00 0.00 0.00
0.00 0.00 0.00 0.00 0.00 0.00 0.00 0.00 0.00 0.00 0.00 0.00 0.00 0.00 0.00 0.00 0.00 0.00 0.00 0.00 0.00 0.00 0.00 0.00 0.00 0.00 0.00 0.00 0.00 0.00 0.00 0.00 0.00 0.00 0.00 0.00 0.00 0.00 0.00 0.00 0.00 0.00 0.00 0.00
0.00 0.00 0.00 0.00 0.00 0.00 0.00 0.00 0.00 0.00 0.00 0.00 0.00 0.00 0.00 0.00 0.00 0.00 0.00 0.00 0.00 0.00 0.00 0.00 0.00 0.00 0.00 0.00 0.00 0.00 0.00 0.00 0.00 0.00 0.00 0.00 0.00 0.00 0.00 0.00 0.00 0.00 0.00 0.00
0.00 0.00 0.00 0.00 0.00 0.00 0.00 0.00 0.00 0.00 0.00 0.00 0.00 0.00 0.00 0.00 0.00 0.00 0.00 0.00 0.00 0.00 0.00 0.00 0.00 0.00 0.00 0.00 0.00 0.00 0.00 0.00 0.00 0.00 0.00 0.00 0.00 0.00 0.00 0.00 0.00 0.00 0.00 0.00
0.00 0.00 0.00 0.00 0.00 0.00 0.00 0.00 0.00 0.00 0.00 0.00 0.00 0.00 0.00 0.00 0.00 0.00 0.00 0.00 0.00 0.00 0.00 0.00 0.00 0.00 0.00 0.00 0.00 0.00 0.00 0.00 0.00 0.00 0.00 0.00 0.00 0.00 0.00 0.00 0.00 0.00 0.00 0.00
0.00 0.00 0.00 0.00 0.00 0.00 0.00 0.00 0.00 0.00 0.00 0.00 0.00 0.00 0.00 0.00 0.00 0.00 0.00 0.00 0.00 0.00 0.00 0.00 0.00 0.00 0.00 0.00 0.00 0.00 0.00 0.00 0.00 0.00 0.00 0.00 0.00 0.00 0.00 0.00 0.00 0.00 0.00 0.00
0.00 0.00 0.00 0.00 0.00 0.00 0.00 0.00 0.00 0.00 0.00 0.00 0.00 0.00 0.00 0.00 0.00 0.00 0.00 0.00 0.00 0.00 0.00 0.00 0.00 0.00 0.00 0.00 0.00 0.00 0.00 0.00 0.00 0.00 0.00 0.00 0.00 0.00 0.00 0.00 0.00 0.00 0.00 0.00
0.00 0.00 0.00 0.00 0.00 0.00 0.00 0.00 0.00 0.00 0.00 0.00 0.00 0.00 0.00 0.00 0.00 0.00 0.00 0.00 0.00 0.00 0.00 0.00 0.00 0.00 0.00 0.00 0.00 0.00 0.00 0.00 0.00 0.00 0.00 0.00 0.00 0.00 0.00 0.00 0.00 0.00 0.00 0.00
0.00 0.00 0.00 0.00 0.00 0.00 0.00 0.00 0.00 0.00 0.00 0.00 0.00 0.00 0.00 0.00 0.00 0.00 0.00 0.00 0.00 0.00 0.00 0.00 0.00 0.00 0.00 0.00 0.00 0.00 0.00 0.00 0.00 0.00 0.00 0.00 0.00 0.00 0.00 0.00 0.00 0.00 0.00 0.00
0.00 0.00 0.00 0.00 0.00 0.00 0.00 0.00 0.00 0.00 0.00 0.00 0.00 0.00 0.00 0.00 0.00 0.00 0.00 0.00 0.00 0.00 0.00 0.00 0.00 0.00 0.00 0.00 0.00 0.00 0.00 0.00 0.00 0.00 0.00 0.00 0.00 0.00 0.00 0.00 0.00 0.00 0.00 0.00
0.00 0.00 0.00 0.00 0.00 0.00 0.00 0.00 0.00 0.00 0.00 0.00 0.00 0.00 0.00 0.00 0.00 0.00 0.00 0.00 0.00 0.00 0.00 0.00 0.00 0.00 0.00 0.00 0.00 0.00 0.00 0.00 0.00 0.00 0.00 0.00 0.00 0.00 0.00 0.00 0.00 0.00 0.00 0.00
0.00 0.00 0.00 0.00 0.00 0.00 0.00 0.00 0.00 0.00 0.00 0.00 0.00 0.00 0.00 0.00 0.00 0.00 0.00 0.00 0.00 0.00 0.00 0.00 0.00 0.00 0.00 0.00 0.00 0.00 0.00 0.00 0.00 0.00 0.00 0.00 0.00 0.00 0.00 0.00 0.00 0.00 0.00 0.00
0.00 0.00 0.00 0.00 0.00 0.00 0.00 0.00 0.00 0.00 0.00 0.00 0.00 0.00 0.00 0.00 0.00 0.00 0.00 0.00 0.00 0.00 0.00 0.00 0.00 0.00 0.00 0.00 0.00 0.00 0.00 0.00 0.00 0.00 0.00 0.00 0.00 0.00 0.00 0.00 0.00 0.00 0.00 0.00
0.00 0.00 0.00 0.00 0.00 0.00 0.00 0.00 0.00 0.00 0.00 0.00 0.00 0.00 0.00 0.00 0.00 0.00 0.00 0.00 0.00 0.00 0.00 0.00 0.00 0.00 0.00 0.00 0.00 0.00 0.00 0.00 0.00 0.00 0.00 0.00 0.00 0.00 0.00 0.00 0.00 0.00 0.00 0.00
0.00 0.00 0.00 0.00 0.00 0.00 0.00 0.00 0.00 0.00 0.00 0.00 0.00 0.00 0.00 0.00 0.00 0.00 0.00 0.00 0.00 0.00 0.00 0.00 0.00 0.00 0.00 0.00 0.00 0.00 0.00 0.00 0.00 0.00 0.00 0.00 0.00 0.00 0.00 0.00 0.00 0.00 0.00 0.00
0.00 0.00 0.00 0.00 0.00 0.00 0.00 0.00 0.00 0.00 0.00 0.00 0.00 0.00 0.00 0.00 0.00 0.00 0.00 0.00 0.00 0.00 0.00 0.00 0.00 0.00 0.00 0.00 0.00 0.00 0.00 0.00 0.00 0.00 0.00 0.00 0.00 0.00 0.00 0.00 0.00 0.00 0.00 0.00
0.00 0.00 0.00 0.00 0.00 0.00 0.00 0.00 0.00 0.00 0.00 0.00 0.00 0.00 0.00 0.00 0.00 0.00 0.00 0.00 0.00 0.00 0.00 0.00 0.00 0.00 0.00 0.00 0.00 0.00 0.00 0.00 0.00 0.00 0.00 0.00 0.00 0.00 0.00 0.00 0.00 0.00 0.00 0.00
0.00 0.00 0.00 0.00 0.00 0.00 0.00 0.00 0.00 0.00 0.00 0.00 0.00 0.00 0.00 0.00 0.00 0.00 0.00 0.00 0.00 0.00 0.00 0.00 0.00 0.00 0.00 0.00 0.00 0.00 0.00 0.00 0.00 0.00 0.00 0.00 0.00 0.00 0.00 0.00 0.00 0.00 0.00 0.00
0.00 0.00 0.00 0.00 0.00 0.00 0.00 0.00 0.00 0.00 0.00 0.00 0.00 0.00 0.00 0.00 0.00 0.00 0.00 0.00 0.00 0.00 0.00 0.00 0.00 0.00 0.00 0.00 0.00 0.00 0.00 0.00 0.00 0.00 0.00 0.00 0.00 0.00 0.00 0.00 0.00 0.00 0.00 0.00
0.00 0.00 0.00 0.00 0.00 0.00 0.00 0.00 0.00 0.00 0.00 0.00 0.00 0.00 0.00 0.00 0.00 0.00 0.00 0.00 0.00 0.00 0.00 0.00 0.00 0.00 0.00 0.00 0.00 0.00 0.00 0.00 0.00 0.00 0.00 0.00 0.00 0.00 0.00 0.00 0.00 0.00 0.00 0.00
0.00 0.00 0.00 0.00 0.00 0.00 0.00 0.00 0.00 0.00 0.00 0.00 0.00 0.00 0.00 0.00 0.00 0.00 0.00 0.00 0.00 0.00 0.00 0.00 0.00 0.00 0.00 0.00 0.00 0.00 0.00 0.00 0.00 0.00 0.00 0.00 0.00 0.00 0.00 0.00 0.00 0.00 0.00 0.00
MSLP
1014.02 1014.71 1014.80 1014.64 1014.94 1015.10 1015.45 1015.75 1015.92 1016.11 1016.33 1016.58 1016.88 1016.96 1016.97 1017.52 1018.25 1018.82 1019.29 1019.68 1019.84 1020.06 1020.38 1020.81 1021.27 1021.79 1022.27 1022.93 1023.44 1023.94 1024.61 1025.34 1025.87 1026.56 1027.02 1027.42 1027.64 1027.98 1028.10 1028.16 1028.30 1028.46 1028.63 1028.85
1014.73 1014.58 1014.47 1014.66 1015.06 1015.37 1015.71 1016.02 1016.37 1016.57 1016.76 1017.03 1017.43 1016.91 1016.75 1017.41 1018.32 1018.93 1019.36 1019.59 1019.68 1020.08 1020.29 1020.68 1021.19 1021.77 1022.17 1022.60 1023.20 1023.88 1024.41 1025.10 1025.65 1026.10 1026.64 1026.92 1027.44 1027.95 1028.12 1028.31 1028.41 1028.51 1028.66 1028.90
1014.43 1014.40 1014.46 1014.81 1015.48 1015.86 1016.15 1016.45 1016.81 1017.18 1017.58 1018.11 1018.25 1017.43 1017.01 1017.90 1018.60 1019.31 1019.78 1019.83 1019.63 1019.62 1020.02 1020.51 1021.09 1021.47 1022.11 1022.52 1022.93 1023.54 1024.17 1024.79 1025.46 1026.08 1026.76 1027.32 1027.69 1028.12 1028.32 1028.46 1028.56 1028.71 1028.78 1028.96
1014.64 1014.57 1014.79 1015.22 1015.73 1016.09 1016.75 1016.78 1017.12 1017.86 1018.67 1019.45 1019.24 1018.58 1017.65 1018.11 1018.84 1019.68 1020.26 1020.25 1020.01 1019.66 1019.81 1020.30 1020.92 1021.43 1021.85 1022.37 1022.89 1023.34 1023.94 1024.61 1025.28 1025.89 1026.31 1026.65 1027.01 1027.62 1027.88 1028.16 1028.48 1028.77 1028.93 1029.09
1014.95 1015.11 1015.36 1015.89 1016.17 1016.47 1017.29 1017.51 1018.20 1019.10 1019.91 1020.31 1020.15 1020.18 1018.14 1018.60 1019.25 1020.07 1020.65 1020.73 1020.50 1020.13 1019.95 1020.27 1020.91 1021.43 1021.96 1022.42 1022.84 1023.33 1023.91 1024.56 1025.11 1025.63 1026.04 1026.52 1027.00 1027.38 1027.78 1028.16 1028.49 1028.82 1029.14 1029.28
1015.58 1015.82 1016.10 1016.55 1017.05 1017.24 1017.88 1018.47 1019.50 1020.45 1020.97 1021.45 1020.69 1020.71 1019.20 1019.26 1019.87 1020.56 1021.10 1021.22 1021.10 1020.80 1020.61 1020.87 1021.27 1021.67 1022.16 1022.65 1023.14 1023.59 1024.03 1024.58 1025.10 1025.60 1026.00 1026.37 1026.75 1027.23 1027.67 1028.13 1028.45 1028.80 1029.10 1029.33
1016.24 1016.62 1016.90 1016.97 1017.72 1018.19 1018.36 1019.16 1020.75 1021.64 1022.11 1021.77 1021.50 1021.66 1019.36 1019.97 1020.59 1021.18 1021.66 1021.83 1021.74 1021.56 1021.41 1021.50 1021.74 1022.06 1022.41 1022.80 1023.20 1023.63 1024.05 1024.56 1025.10 1025.56 1025.94 1026.22 1026.55 1026.95 1027.21 1027.62 1028.04 1028.52 1028.89 1029.15
1016.47 1017.44 1017.48 1017.75 1017.99 1017.99 1018.85 1019.23 1020.26 1021.27 1022.48 1022.27 1022.17 1021.25 1019.94 1020.71 1021.25 1021.79 1022.21 1022.44 1022.41 1022.38 1022.32 1022.32 1022.45 1022.57 1022.77 1023.12 1023.42 1023.68 1023.98 1024.43 1024.94 1025.34 1025.61 1026.01 1026.35 1026.68 1026.96 1027.26 1027.64 1027.98 1028.28 1028.56
1016.36 1017.50 1018.18 1018.36 1018.56 1018.87 1019.53 1019.89 1020.23 1021.67 1023.50 1022.87 1021.48 1020.69 1021.00 1021.38 1021.86 1022.38 1022.81 1023.07 1023.34 1023.40 1023.34 1023.25 1023.18 1023.14 1023.20 1023.39 1023.58 1023.77 1024.10 1024.49 1024.85 1025.17 1025.56 1025.86 1026.17 1026.47 1026.68 1026.92 1027.30 1027.59 1027.96 1028.32
1015.76 1017.35 1018.65 1019.02 1019.19 1019.57 1019.61 1020.10 1020.95 1021.96 1023.06 1022.95 1021.96 1021.45 1020.63 1021.67 1022.22 1022.80 1023.33 1023.69 1023.98 1024.06 1024.08 1024.07 1024.08 1024.01 1023.97 1023.99 1024.00 1024.10 1024.33 1024.54 1024.81 1025.17 1025.49 1025.75 1025.99 1026.22 1026.44 1026.84 1027.10 1027.34 1027.69 1028.07
1016.02 1016.96 1019.47 1019.58 1019.98 1020.25 1020.78 1020.86 1021.57 1021.90 1022.60 1022.96 1022.89 1021.29 1020.69 1021.41 1022.20 1023.10 1023.86 1024.19 1024.37 1024.58 1024.81 1024.92 1024.99 1024.89 1024.83 1024.71 1024.63 1024.64 1024.66 1024.82 1024.98 1025.15 1025.32 1025.47 1025.58 1025.83 1026.17 1026.49 1026.78 1027.09 1027.47 1027.85
1016.39 1017.24 1019.29 1020.00 1020.89 1021.27 1021.09 1021.18 1021.42 1022.28 1023.68 1024.18 1023.76 1022.07 1021.67 1022.36 1022.84 1023.53 1024.34 1024.62 1024.89 1025.22 1025.44 1025.59 1025.61 1025.56 1025.51 1025.43 1025.46 1025.50 1025.39 1025.32 1025.39 1025.36 1025.42 1025.54 1025.67 1025.82 1026.04 1026.21 1026.32 1026.73 1026.99 1027.36
1016.37 1017.36 1019.25 1020.38 1021.54 1021.65 1021.75 1021.89 1022.39 1022.68 1023.30 1024.33 1024.11 1022.85 1022.59 1023.17 1023.79 1024.26 1024.76 1025.11 1025.40 1025.75 1026.04 1026.26 1026.25 1026.26 1026.28 1026.36 1026.35 1026.22 1026.09 1026.04 1025.94 1025.81 1025.73 1025.71 1025.78 1025.88 1026.02 1026.18 1026.39 1026.65 1026.82 1027.05
1016.11 1017.28 1018.20 1019.28 1019.82 1020.54 1021.99 1022.36 1022.98 1023.32 1024.41 1024.32 1023.86 1023.30 1023.49 1023.92 1024.28 1024.83 1025.23 1025.68 1026.12 1026.53 1026.80 1026.97 1026.98 1027.03 1027.00 1026.88 1026.81 1026.71 1026.61 1026.59 1026.42 1026.18 1026.02 1025.98 1025.97 1025.96 1026.03 1026.12 1026.25 1026.42 1026.63 1026.89
1017.00 1017.94 1018.92 1019.73 1020.38 1021.06 1021.81 1022.70 1023.44 1023.93 1023.71 1024.18 1024.08 1023.97 1023.50 1023.81 1024.48 1025.26 1025.66 1026.42 1026.93 1027.23 1027.53 1027.65 1027.64 1027.61 1027.53 1027.43 1027.27 1027.18 1027.05 1026.95 1026.79 1026.57 1026.48 1026.44 1026.37 1026.28 1026.16 1026.15 1026.17 1026.24 1026.42 1026.49
1018.09 1019.24 1020.08 1021.07 1021.63 1022.12 1022.91 1023.08 1023.66 1024.35 1024.51 1024.72 1024.89 1024.81 1023.94 1024.54 1025.45 1025.97 1026.31 1027.12 1027.86 1028.19 1028.46 1028.43 1028.23 1028.06 1027.80 1027.61 1027.42 1027.28 1027.18 1027.06 1027.05 1026.98 1026.89 1026.74 1026.56 1026.46 1026.54 1026.40 1026.26 1026.28 1026.35 1026.46
1019.26 1020.14 1021.44 1022.19 1022.62 1023.09 1023.46 1021.88 1022.74 1023.25 1023.80 1023.94 1024.88 1023.74 1024.10 1024.98 1025.56 1026.35 1026.93 1027.78 1028.65 1029.12 1029.03 1029.17 1028.90 1028.58 1028.25 1027.92 1027.57 1027.38 1027.26 1027.15 1027.15 1027.08 1026.90 1026.83 1026.67 1026.58 1026.57 1026.66 1026.59 1026.40 1026.47 1026.61
1019.88 1020.97 1022.11 1023.32 1023.52 1023.01 1021.12 1021.27 1021.77 1022.43 1022.94 1023.64 1024.09 1024.16 1024.68 1025.31 1026.18 1027.08 1028.00 1028.61 1029.42 1029.64 1029.96 1030.00 1029.75 1029.21 1028.59 1028.14 1027.79 1027.34 1027.21 1027.11 1027.01 1026.86 1026.69 1026.51 1026.52 1026.49 1026.52 1026.64 1026.71 1026.61 1026.42 1026.49
1020.27 1021.09 1022.94 1023.90 1023.99 1021.66 1020.98 1021.12 1021.56 1021.76 1022.00 1022.60 1023.63 1024.46 1025.33 1026.15 1026.73 1027.82 1028.43 1029.28 1030.05 1030.52 1030.69 1030.79 1030.26 1029.66 1029.02 1028.57 1028.13 1027.68 1027.29 1027.08 1026.93 1026.75 1026.50 1026.17 1026.20 1026.26 1026.33 1026.39 1026.46 1026.54 1026.57 1026.60
1021.32 1021.63 1022.62 1024.24 1024.07 1022.00 1020.34 1020.10 1020.50 1021.11 1022.10 1022.17 1023.13 1024.31 1025.25 1026.30 1027.50 1028.29 1029.08 1029.98 1030.60 1031.01 1031.21 1031.02 1030.44 1029.99 1029.39 1028.70 1028.21 1027.74 1027.24 1026.91 1026.70 1026.23 1026.00 1025.83 1025.77 1025.86 1025.94 1025.96 1026.06 1026.19 1026.33 1026.41
1022.67 1023.24 1023.94 1024.37 1023.80 1021.84 1020.45 1020.58 1021.16 1022.18 1022.69 1022.56 1023.41 1024.18 1025.51 1026.63 1027.23 1028.18 1029.62 1030.62 1031.27 1031.81 1031.94 1031.60 1031.22 1030.73 1029.79 1028.81 1028.23 1027.80 1027.37 1026.94 1026.63 1026.30 1025.98 1025.70 1025.59 1025.53 1025.44 1025.54 1025.64 1025.75 1025.92 1026.11
1022.03 1023.13 1024.04 1024.51 1024.36 1022.61 1021.03 1021.65 1022.07 1022.34 1022.60 1023.16 1024.15 1025.01 1026.16 1026.90 1027.94 1029.06 1030.28 1031.45 1032.03 1032.45 1032.55 1032.28 1032.01 1031.56 1030.85 1030.12 1029.29 1028.59 1027.82 1027.52 1026.88 1026.44 1025.95 1025.49 1025.24 1025.13 1025.04 1025.08 1025.18 1025.31 1025.49 1025.74
1022.34 1021.66 1022.23 1022.42 1022.22 1021.95 1022.28 1022.43 1022.79 1022.87 1023.29 1024.24 1024.82 1025.75 1026.55 1027.51 1028.48 1029.44 1030.79 1031.84 1032.55 1033.24 1033.59 1033.26 1033.15 1032.65 1031.92 1031.31 1030.60 1029.90 1029.08 1028.20 1027.39 1026.40 1025.63 1025.28 1025.01 1024.82 1024.68 1024.69 1024.77 1024.97 1025.14 1025.30
1022.18 1022.03 1022.37 1022.78 1022.99 1023.23 1023.42 1023.74 1023.83 1023.90 1024.50 1025.29 1025.90 1026.64 1027.33 1028.15 1028.97 1029.99 1031.01 1032.12 1032.89 1033.62 1034.00 1034.03 1033.93 1033.68 1033.04 1032.18 1031.40 1030.71 1029.74 1028.76 1027.76 1026.64 1025.59 1025.03 1024.90 1024.67 1024.54 1024.45 1024.42 1024.49 1024.68 1024.92
1022.96 1023.07 1023.44 1023.88 1024.37 1024.64 1024.63 1024.83 1025.07 1025.43 1025.87 1026.46 1027.13 1027.77 1028.50 1029.09 1029.95 1030.69 1031.66 1032.67 1033.58 1034.32 1034.50 1034.46 1034.45 1034.10 1033.40 1032.63 1031.82 1030.88 1030.13 1029.15 1028.09 1027.03 1026.14 1025.45 1024.93 1024.65 1024.33 1024.27 1024.17 1024.13 1024.24 1024.37
1024.20 1024.19 1024.57 1024.84 1024.76 1025.08 1025.51 1025.73 1026.12 1026.52 1027.16 1027.75 1028.39 1029.45 1030.19 1030.56 1031.22 1031.86 1032.65 1033.28 1033.98 1034.73 1034.66 1034.63 1034.33 1033.88 1033.20 1032.47 1031.78 1030.95 1030.31 1029.58 1028.71 1027.70 1026.85 1026.13 1025.37 1024.94 1024.55 1024.32 1024.18 1024.00 1024.03 1024.08
Thickness
5619 5612 5609 5613 5611 5617 5610 5613 5616 5615 5613 5616 5613 5612 5619 5620 5612 5612 5609 5607 5606 5608 5606 5601 5598 5594 5590 5585 5582 5579 5574 5568 5565 5561 5558 5555 5555 5552 5552 5552 5552 5552 5552 5552
5606 5604 5610 5610 5605 5609 5608 5608 5607 5606 5604 5607 5602 5615 5616 5617 5609 5606 5606 5605 5604 5602 5601 5598 5594 5589 5587 5583 5579 5574 5571 5565 5562 5559 5555 5553 5550 5547 5546 5546 5547 5547 5547 5546
5600 5609 5604 5605 5597 5598 5597 5596 5597 5603 5594 5585 5590 5609 5616 5604 5597 5591 5587 5588 5598 5602 5600 5594 5589 5586 5581 5578 5575 5571 5567 5562 5557 5553 5548 5545 5543 5540 5539 5539 5539 5540 5540 5539
5599 5601 5600 5599 5596 5593 5589 5594 5595 5590 5583 5579 5573 5588 5609 5601 5597 5584 5577 5580 5583 5592 5592 5589 5584 5580 5578 5574 5570 5567 5562 5557 5552 5548 5545 5544 5543 5539 5537 5536 5533 5531 5531 5530
5591 5590 5592 5591 5593 5589 5588 5580 5577 5569 5550 5562 5573 5554 5602 5594 5597 5581 5572 5570 5572 5578 5583 5581 5576 5573 5569 5565 5562 5560 5556 5551 5546 5543 5541 5538 5535 5532 5529 5527 5525 5523 5522 5521
5575 5571 5575 5576 5564 5572 5558 5563 5551 5535 5538 5524 5535 5559 5588 5592 5581 5570 5560 5559 5560 5566 5567 5566 5564 5561 5558 5554 5551 5549 5547 5543 5538 5535 5533 5531 5528 5525 5523 5520 5518 5515 5513 5512
5568 5564 5559 5564 5561 5563 5563 5562 5537 5538 5521 5554 5525 5531 5578 5561 5551 5552 5550 5547 5547 5549 5553 5553 5553 5550 5547 5545 5542 5539 5537 5533 5529 5526 5524 5522 5521 5519 5518 5515 5512 5509 5506 5504
5560 5561 5554 5549 5557 5559 5554 5553 5546 5548 5544 5553 5517 5537 5572 5539 5534 5536 5535 5534 5535 5536 5536 5537 5538 5538 5536 5533 5531 5530 5527 5525 5521 5519 5517 5514 5512 5511 5510 5508 5505 5503 5501 5499
5555 5560 5535 5536 5538 5542 5546 5543 5534 5484 5463 5501 5537 5544 5529 5524 5527 5526 5524 5522 5519 5519 5519 5521 5522 5522 5522 5522 5520 5518 5516 5514 5512 5510 5507 5505 5503 5501 5500 5499 5497 5495 5492 5489
5558 5542 5527 5526 5529 5527 5531 5526 5532 5490 5499 5514 5526 5527 5558 5518 5521 5516 5512 5507 5504 5505 5506 5506 5506 5507 5507 5506 5506 5505 5504 5503 5501 5498 5496 5495 5493 5491 5490 5487 5486 5484 5482 5479
5535 5534 5517 5522 5520 5518 5511 5496 5501 5504 5490 5502 5499 5535 5516 5523 5515 5509 5496 5493 5492 5491 5490 5489 5488 5488 5489 5490 5491 5491 5491 5490 5489 5488 5487 5486 5485 5483 5480 5477 5475 5473 5470 5468
5528 5510 5494 5519 5479 5472 5494 5506 5506 5515 5487 5439 5459 5509 5493 5483 5484 5483 5482 5483 5480 5477 5475 5473 5473 5473 5474 5475 5474 5474 5474 5475 5474 5474 5474 5473 5471 5470 5468 5466 5465 5462 5460 5457
5513 5502 5490 5514 5488 5482 5484 5482 5464 5459 5454 5447 5484 5498 5478 5469 5464 5456 5461 5469 5465 5462 5459 5457 5457 5457 5457 5456 5455 5456 5456 5457 5457 5458 5458 5457 5457 5456 5455 5453 5450 5448 5446 5444
5521 5504 5505 5521 5523 5489 5473 5479 5450 5456 5453 5465 5463 5477 5470 5471 5470 5459 5457 5447 5444 5446 5445 5443 5440 5441 5440 5440 5440 5439 5439 5438 5439 5441 5441 5440 5439 5439 5438 5437 5435 5433 5431 5429
5502 5497 5496 5486 5478 5472 5467 5460 5468 5441 5448 5491 5471 5474 5465 5465 5454 5445 5428 5432 5431 5424 5427 5421 5420 5423 5422 5421 5423 5422 5422 5421 5421 5422 5421 5420 5419 5419 5420 5419 5418 5416 5414 5412
5471 5464 5446 5429 5448 5422 5435 5424 5446 5451 5414 5404 5385 5422 5434 5407 5420 5426 5430 5424 5413 5410 5400 5407 5406 5403 5404 5405 5406 5406 5405 5404 5402 5400 5399 5399 5399 5399 5398 5398 5398 5397 5396 5394
5447 5439 5431 5434 5431 5409 5422 5443 5440 5446 5420 5429 5438 5456 5431 5429 5429 5424 5421 5413 5396 5382 5376 5379 5389 5389 5389 5386 5387 5388 5386 5384 5381 5379 5378 5377 5378 5377 5375 5373 5373 5373 5372 5371
5430 5419 5402 5403 5407 5415 5452 5404 5416 5429 5412 5396 5396 5404 5418 5418 5404 5377 5364 5376 5364 5361 5367 5367 5368 5365 5366 5365 5366 5368 5366 5364 5361 5359 5359 5358 5356 5355 5352 5349 5347 5347 5347 5347
5432 5431 5395 5398 5395 5443 5448 5422 5417 5435 5455 5405 5405 5404 5398 5383 5378 5378 5369 5352 5352 5346 5340 5338 5336 5337 5341 5344 5344 5344 5345 5343 5339 5338 5338 5337 5335 5332 5329 5327 5325 5323 5321 5321
5417 5409 5408 5361 5382 5419 5445 5434 5422 5409 5423 5401 5391 5386 5387 5368 5371 5364 5348 5334 5326 5322 5319 5320 5320 5315 5315 5322 5323 5323 5324 5322 5318 5319 5318 5317 5314 5311 5309 5307 5304 5302 5300 5299
5390 5382 5387 5372 5345 5392 5409 5403 5394 5406 5413 5384 5384 5381 5366 5348 5340 5338 5321 5311 5303 5298 5295 5295 5293 5292 5296 5301 5301 5304 5303 5300 5298 5298 5297 5296 5294 5292 5291 5289 5286 5283 5281 5280
5388 5377 5367 5346 5320 5392 5393 5395 5399 5380 5366 5361 5348 5328 5328 5328 5320 5305 5295 5281 5274 5272 5270 5269 5266 5265 5266 5269 5273 5277 5281 5274 5276 5276 5277 5277 5276 5275 5275 5271 5268 5265 5262 5260
5379 5383 5378 5380 5381 5364 5355 5358 5348 5350 5350 5339 5337 5327 5318 5307 5298 5292 5271 5257 5249 5243 5240 5237 5236 5236 5239 5240 5243 5245 5247 5249 5252 5257 5260 5259 5259 5257 5257 5253 5250 5246 5244 5242
5368 5355 5351 5357 5354 5339 5335 5329 5325 5325 5319 5311 5309 5296 5286 5276 5273 5263 5254 5241 5229 5222 5220 5212 5211 5212 5212 5215 5217 5219 5224 5227 5231 5237 5242 5242 5240 5239 5236 5234 5232 5230 5228 5226
5340 5335 5341 5327 5302 5305 5304 5305 5298 5293 5285 5279 5272 5266 5258 5252 5244 5235 5227 5218 5205 5198 5194 5190 5188 5188 5191 5193 5196 5199 5203 5206 5211 5215 5219 5220 5221 5219 5220 5217 5215 5214 5214 5214
5300 5314 5316 5321 5288 5283 5280 5277 5272 5267 5260 5253 5244 5233 5225 5220 5213 5208 5199 5196 5184 5176 5172 5173 5172 5172 5176 5177 5178 5179 5181 5184 5187 5191 5194 5197 5200 5199 5200 5200 5199 5199 5200 5201